Hourly Data Report for September 19, 2015

IQALUIT CLIMATE
NUNAVUT

63°44'50.000" N
68°32'40.000" W
33.50 m
2402592
71321
XFB

Download Data

Hourly Data (September 2015)
Hourly Data Report for September 19, 2015
TIME
LST
Temp Definition
°C
Dew Point Definition
°C
Rel Hum Definition
%
Precip. Amount Definition
mm

Wind Dir Definition
10's deg

Wind Spd Definition
km/h
Visibility Definition
km
Stn Press Definition
kPa
Hmdx Definition


Wind Chill Definition


Weather Definition


00:00 -2.8 -4.8 86 0.0 0 1   100.80   -3 LegendNANA
01:00 -2.8 -4.6 87 0.0 36 5   100.77   -5 LegendNANA
02:00 -2.9 -5.1 85 0.0 34 4   100.73   -4 LegendNANA
03:00 -3.2 -4.9 88 0.0 35 7   100.67   -6 LegendNANA
04:00 -3.7 -5.4 88 0.0 35 3   100.70   -5 LegendNANA
05:00 -3.8 -5.2 90 0.0 34 6   100.69   -6 LegendNANA
06:00 -2.5 -4.2 88 0.0 32 4   100.67   -4 LegendNANA
07:00 -1.6 -3.4 87 0.0 33 4   100.66   -3 LegendNANA
08:00 -0.3 -2.6 84 0.0 34 9   100.66   -3 LegendNANA
09:00 1.3 -2.0 79 0.0 31 7   100.64     LegendNANA
10:00 1.0 -1.7 82 0.0 15 6   100.64     LegendNANA
11:00 1.4 -1.3 82 0.0 12 5   100.63     LegendNANA
12:00 3.1 -1.0 75 0.0 17 3   100.59     LegendNANA
13:00 2.9 -0.4 79 0.0 15 8   100.60     LegendNANA
14:00 3.2 -1.0 74 0.0 15 7   100.61     LegendNANA
15:00 2.8 -1.0 76 0.0 16 5   100.61     LegendNANA
16:00 0.8 -1.6 84 0.0 15 10   100.67     LegendNANA
17:00 0.6 -2.0 83 0.0 14 6   100.70     LegendNANA
18:00 -0.2 -2.5 84 0.0 15 7   100.71   -3 LegendNANA
19:00 -0.1 -2.6 84 0.0 14 7   100.72   -3 LegendNANA
20:00 -0.3 -2.3 86 0.0 13 4   100.76   -2 LegendNANA
21:00 0.4 -2.0 84 0.0 13 8   100.76     LegendNANA
22:00 -0.4 -2.6 85 0.0 8 3   100.75   -1 LegendNANA
23:00 -0.9 -3.2 85 0.0 4 2   100.74   -2 LegendNANA

Notes on Data Quality.

Legend

  • E = Estimated
  • M = Missing
  • NA = Not Available*
  • [empty] = Indicates an unobserved value
Date modified: